DW1520 Weather Reports


time (UTC)temp
C
wind
direction
speed
KPH
gust
KPH
rain 1hr
cm
rain 24hr
cm
rain mn
cm
humidity
%
barometer
mb
20240723051005 20 240 0.0 0.0 0.00 0.03 0.00 81 1011.9
20240723050506 20 240 0.0 0.0 0.00 0.03 0.00 81 1011.7
20240723050006 20 240 0.0 0.0 0.00 0.03 0.00 81 1011.7
20240723045505 20 240 0.0 0.0 0.00 0.03 0.03 81 1011.6
20240723045006 20 240 0.0 0.0 0.00 0.03 0.03 81 1011.6
20240723044505 20 240 0.0 1.6 0.00 0.03 0.03 81 1011.6
20240723043506 20 240 0.0 1.6 0.00 0.03 0.03 80 1011.6
20240723042005 20 240 0.0 1.6 0.00 0.03 0.03 79 1011.6
20240723041505 20 240 0.0 3.2 0.00 0.03 0.03 79 1011.6
20240723040505 20 240 0.0 0.0 0.00 0.03 0.03 80 1011.5
20240723040005 20 240 0.0 0.0 0.00 0.03 0.03 80 1011.5
20240723035506 19 240 0.0 0.0 0.00 0.03 0.03 80 1011.5
20240723035005 19 240 0.0 0.0 0.00 0.03 0.03 80 1011.4
20240723034505 19 240 0.0 0.0 0.00 0.03 0.03 81 1011.4
20240723034006 19 240 0.0 0.0 0.00 0.03 0.03 81 1011.4
20240723033505 19 240 0.0 0.0 0.00 0.03 0.03 82 1011.3
20240723032505 19 240 0.0 0.0 0.00 0.03 0.03 80 1011.2
20240723032005 19 240 0.0 1.6 0.00 0.03 0.03 80 1011.3
20240723031505 19 267 0.0 0.0 0.00 0.03 0.03 80 1011.3
20240723031005 19 267 0.0 0.0 0.00 0.03 0.03 79 1011.3
20240723030505 19 267 0.0 1.6 0.00 0.03 0.03 79 1011.4
20240723030005 19 267 0.0 3.2 0.00 0.03 0.03 78 1011.4
20240723025506 20 242 0.0 1.6 0.00 0.03 0.03 79 1011.7
20240723025006 20 241 0.0 3.2 0.00 0.03 0.03 79 1011.8
20240723024505 20 286 0.0 3.2 0.00 0.03 0.03 80 1011.9
20240723024005 20 292 0.0 0.0 0.00 0.03 0.03 78 1011.5
20240723023505 20 292 0.0 0.0 0.00 0.03 0.03 78 1011.6
20240723022006 20 292 0.0 0.0 0.00 0.03 0.03 76 1011.3
20240723021006 20 292 0.0 0.0 0.00 0.03 0.03 74 1011.3
20240723020505 20 292 0.0 0.0 0.00 0.03 0.03 74 1011.4
20240723020005 21 292 0.0 0.0 0.00 0.03 0.03 73 1011.5
20240723015506 21 292 0.0 0.0 0.00 0.03 0.03 72 1011.2
20240723015005 21 292 0.0 0.0 0.00 0.03 0.03 74 1011.0
20240723014505 21 292 0.0 0.0 0.00 0.03 0.03 73 1010.8
20240723014006 21 292 0.0 1.6 0.00 0.03 0.03 73 1010.8
20240723013505 21 292 0.0 0.0 0.00 0.03 0.03 70 1010.9
20240723013005 22 292 0.0 1.6 0.00 0.03 0.03 68 1011.1
20240723012505 22 292 0.0 0.0 0.00 0.03 0.03 68 1011.2
20240723012006 22 292 0.0 1.6 0.00 0.03 0.03 67 1011.4
20240723011505 22 292 0.0 3.2 0.00 0.03 0.03 66 1011.6
20240723011005 22 292 0.0 3.2 0.00 0.03 0.03 65 1011.8
20240723010505 23 288 1.6 4.8 0.00 0.03 0.03 63 1011.9
20240723010006 23 329 3.2 16.1 0.00 0.03 0.03 62 1012.0
20240723005505 24 251 1.6 4.8 0.00 0.03 0.03 66 1012.2
20240723005006 25 250 0.0 4.8 0.00 0.03 0.03 74 1012.0
20240723004505 25 250 0.0 0.0 0.00 0.03 0.03 74 1011.7
20240723003506 25 250 0.0 3.2 0.00 0.03 0.03 74 1011.7
20240723002505 25 256 0.0 3.2 0.00 0.03 0.03 72 1011.5
20240723002006 25 256 1.6 4.8 0.00 0.03 0.03 72 1011.5
20240723001505 25 116 0.0 3.2 0.00 0.03 0.03 73 1011.3
20240723000505 26 116 0.0 0.0 0.00 0.03 0.03 73 1011.2
20240723000005 26 116 0.0 1.6 0.00 0.03 0.03 73 1011.3
20240722235505 26 242 0.0 1.6 0.00 0.03 0.03 74 1011.3
20240722235006 25 242 0.0 3.2 0.00 0.03 0.03 74 1011.2
20240722234505 25 316 0.0 3.2 0.00 0.03 0.03 73 1011.3
20240722234005 25 316 1.6 3.2 0.00 0.03 0.03 74 1011.4
20240722233005 25 317 0.0 1.6 0.00 0.03 0.03 72 1011.3
20240722232006 26 317 1.6 4.8 0.00 0.03 0.03 73 1011.1
20240722231505 26 259 1.6 11.3 0.00 0.03 0.03 72 1011.0
20240722231005 26 184 3.2 11.3 0.00 0.03 0.03 72 1011.0
20240722230505 26 186 1.6 4.8 0.00 0.03 0.03 73 1010.9
20240722230005 26 171 0.0 3.2 0.00 0.03 0.03 73 1010.9
20240722225006 26 175 1.6 4.8 0.00 0.03 0.03 72 1010.9
20240722224506 26 186 0.0 4.8 0.00 0.03 0.03 72 1011.0
20240722224005 26 173 0.0 1.6 0.00 0.03 0.03 71 1011.0
20240722223506 26 173 1.6 4.8 0.00 0.03 0.03 70 1011.1
20240722223005 26 163 3.2 9.7 0.00 0.03 0.03 70 1011.2
20240722222505 26 161 1.6 8.0 0.00 0.03 0.03 70 1011.3
20240722221505 26 168 1.6 8.0 0.00 0.03 0.03 71 1011.3
20240722221005 26 169 3.2 8.0 0.00 0.03 0.03 69 1011.2
20240722220506 26 166 1.6 9.7 0.00 0.03 0.03 68 1011.3
20240722220005 26 169 3.2 9.7 0.00 0.03 0.03 68 1011.3
20240722215505 27 169 3.2 4.8 0.00 0.03 0.03 69 1011.4
20240722215005 27 168 0.0 1.6 0.00 0.03 0.03 67 1011.4
20240722214505 27 168 0.0 8.0 0.00 0.03 0.03 65 1011.4
20240722214006 27 168 3.2 9.7 0.00 0.03 0.03 66 1011.4
20240722213505 27 171 3.2 9.7 0.00 0.03 0.03 68 1011.3
20240722213005 27 161 3.2 8.0 0.00 0.03 0.03 66 1011.3
20240722212506 27 246 0.0 3.2 0.00 0.03 0.03 64 1011.4
20240722212005 28 259 0.0 4.8 0.00 0.03 0.03 65 1011.5
20240722211006 28 182 3.2 4.8 0.00 0.03 0.03 65 1011.6
20240722210505 28 160 1.6 8.0 0.00 0.03 0.03 65 1011.7
20240722210005 28 168 3.2 8.0 0.00 0.03 0.03 66 1011.8
20240722205505 28 158 4.8 12.9 0.00 0.03 0.03 66 1011.8
20240722204505 28 154 1.6 9.7 0.00 0.03 0.03 67 1012.0
20240722204006 28 156 0.0 4.8 0.00 0.03 0.03 69 1012.1
20240722203505 28 156 3.2 8.0 0.00 0.03 0.03 67 1012.2
20240722202005 28 200 0.0 3.2 0.00 0.03 0.03 65 1012.4
20240722201505 28 164 1.6 3.2 0.00 0.03 0.03 66 1012.4
20240722201006 28 159 0.0 3.2 0.00 0.03 0.03 66 1012.3
20240722200506 28 142 1.6 4.8 0.00 0.03 0.03 62 1012.3
20240722200005 28 132 0.0 4.8 0.00 0.03 0.03 65 1012.5
20240722195506 28 123 3.2 14.5 0.00 0.03 0.03 64 1012.5
20240722195005 28 170 1.6 8.0 0.00 0.03 0.03 65 1012.6
20240722194505 28 166 1.6 8.0 0.00 0.03 0.03 67 1012.8
20240722194005 28 164 0.0 1.6 0.00 0.03 0.03 63 1013.0
20240722193505 28 164 6.4 14.5 0.00 0.03 0.03 61 1013.1
20240722193005 28 130 0.0 4.8 0.00 0.03 0.03 64 1013.1
20240722192505 28 123 1.6 9.7 0.00 0.03 0.03 65 1013.2
20240722192005 28 163 1.6 4.8 0.00 0.03 0.03 64 1013.2
20240722191005 28 169 0.0 3.2 0.00 0.03 0.03 67 1013.3
20240722190505 28 169 4.8 9.7 0.00 0.03 0.03 66 1013.2
20240722190005 28 174 3.2 8.0 0.00 0.03 0.03 65 1013.3
20240722185505 28 171 3.2 9.7 0.00 0.03 0.03 61 1013.4
20240722185005 29 178 3.2 9.7 0.00 0.03 0.03 64 1013.4
20240722184505 29 162 1.6 9.7 0.00 0.03 0.03 61 1013.5
20240722184006 28 163 0.0 4.8 0.00 0.03 0.03 62 1013.6
20240722183505 28 159 3.2 9.7 0.00 0.03 0.03 63 1013.7
20240722182505 28 165 1.6 4.8 0.00 0.03 0.03 63 1013.8
20240722182005 27 165 1.6 4.8 0.00 0.03 0.03 68 1013.9
20240722181505 27 295 0.0 4.8 0.00 0.03 0.03 67 1014.0
20240722181005 27 254 1.6 4.8 0.00 0.03 0.03 66 1014.0
20240722180505 27 187 0.0 3.2 0.00 0.03 0.03 60 1014.1
20240722180005 28 187 0.0 3.2 0.00 0.03 0.03 65 1014.1
20240722175005 27 171 1.6 3.2 0.00 0.03 0.03 66 1014.1
20240722174505 27 165 0.0 3.2 0.00 0.03 0.03 64 1014.1
20240722173505 28 165 1.6 4.8 0.00 0.03 0.03 67 1014.3
20240722173006 28 161 1.6 8.0 0.00 0.03 0.03 62 1014.4
20240722172005 28 161 1.6 8.0 0.00 0.05 0.03 69 1014.6
20240722171505 27 157 1.6 4.8 0.00 0.05 0.03 64 1014.6
20240722170505 27 167 0.0 4.8 0.00 0.05 0.03 68 1014.6
20240722170005 27 167 1.6 4.8 0.00 0.05 0.03 62 1014.7
20240722165505 27 167 0.0 4.8 0.00 0.05 0.03 67 1014.7
20240722164005 27 167 1.6 9.7 0.00 0.08 0.03 68 1014.6
20240722163505 26 164 1.6 4.8 0.00 0.08 0.03 68 1014.6
20240722163005 26 257 1.6 4.8 0.00 0.08 0.03 67 1014.7
20240722162508 26 193 1.6 4.8 0.00 0.08 0.03 70 1014.7
20240722162005 26 231 3.2 4.8 0.00 0.08 0.03 68 1014.7
20240722161505 26 264 0.0 3.2 0.00 0.08 0.03 73 1014.8
20240722160505 25 273 0.0 1.6 0.00 0.08 0.03 74 1014.8
20240722160005 25 273 0.0 4.8 0.00 0.08 0.03 68 1014.8
20240722155005 25 271 0.0 3.2 0.00 0.08 0.03 72 1015.0
20240722154505 25 271 0.0 3.2 0.00 0.08 0.03 73 1015.1
20240722154005 25 271 0.0 3.2 0.00 0.08 0.03 74 1015.3
20240722153506 25 271 0.0 3.2 0.00 0.08 0.03 77 1015.4
20240722153005 24 249 0.0 3.2 0.00 0.10 0.03 76 1015.3
20240722152505 24 249 1.6 4.8 0.00 0.10 0.03 72 1015.3
20240722152005 24 153 0.0 3.2 0.00 0.10 0.03 76 1015.3
20240722151506 24 153 1.6 3.2 0.00 0.10 0.03 80 1015.2
20240722151005 24 153 0.0 1.6 0.00 0.13 0.03 81 1015.2
20240722150505 23 153 0.0 1.6 0.00 0.13 0.03 80 1015.2
20240722150005 23 153 1.6 3.2 0.00 0.15 0.03 78 1015.1
20240722145505 23 153 1.6 3.2 0.00 0.18 0.03 81 1015.0
20240722145005 23 153 1.6 4.8 0.00 0.18 0.03 81 1015.1
20240722144505 23 152 1.6 4.8 0.00 0.18 0.03 83 1015.2
20240722144006 22 152 0.0 1.6 0.00 0.18 0.03 85 1015.2
20240722143505 22 152 0.0 1.6 0.00 0.18 0.03 86 1015.3
20240722143005 22 152 0.0 0.0 0.00 0.18 0.03 87 1015.3
20240722142506 21 152 0.0 3.2 0.00 0.18 0.03 89 1015.3
20240722142005 21 152 1.6 3.2 0.00 0.18 0.03 90 1015.3
20240722141505 21 152 1.6 4.8 0.00 0.18 0.03 91 1015.3
20240722141005 20 152 3.2 4.8 0.00 0.18 0.03 91 1015.4
20240722140505 20 152 3.2 4.8 0.00 0.18 0.03 92 1015.4
20240722140005 20 151 1.6 4.8 0.00 0.18 0.03 92 1015.4
20240722135505 20 180 3.2 4.8 0.00 0.18 0.03 92 1015.4
20240722135005 20 180 1.6 3.2 0.00 0.18 0.03 93 1015.4
20240722134006 19 180 1.6 4.8 0.00 0.18 0.03 92 1015.5
20240722133505 18 180 3.2 4.8 0.00 0.18 0.03 92 1015.5
20240722133005 18 201 3.2 4.8 0.00 0.18 0.03 93 1015.4
20240722131005 18 355 1.6 4.8 0.00 0.18 0.03 93 1015.6
20240722130505 18 355 1.6 4.8 0.00 0.18 0.03 93 1015.6
20240722130005 17 355 1.6 4.8 0.00 0.18 0.03 93 1015.6
20240722125508 17 355 1.6 4.8 0.00 0.18 0.03 93 1015.6
20240722125006 17 355 1.6 3.2 0.00 0.18 0.03 93 1015.6
20240722124505 17 355 1.6 3.2 0.00 0.18 0.03 93 1015.7
20240722123505 17 355 1.6 1.6 0.00 0.18 0.03 93 1015.8
20240722123005 16 355 1.6 3.2 0.00 0.18 0.03 93 1015.8
20240722122505 16 355 1.6 3.2 0.00 0.18 0.03 93 1015.8
20240722122005 16 355 1.6 3.2 0.00 0.18 0.03 93 1015.9
20240722121505 16 355 0.0 3.2 0.00 0.18 0.03 93 1015.8
20240722121006 16 355 1.6 3.2 0.00 0.18 0.03 93 1015.9
20240722120505 16 355 0.0 0.0 0.00 0.18 0.03 93 1015.8
20240722120005 16 355 0.0 0.0 0.00 0.18 0.03 93 1015.8
20240722115005 16 355 1.6 1.6 0.00 0.18 0.03 93 1015.7
20240722114505 16 355 1.6 1.6 0.00 0.18 0.03 93 1015.6
20240722114005 16 355 1.6 1.6 0.00 0.18 0.03 93 1015.7
20240722113505 16 355 0.0 0.0 0.00 0.18 0.03 93 1015.8
20240722113005 16 355 0.0 0.0 0.00 0.18 0.03 93 1015.8
20240722112505 16 355 0.0 0.0 0.00 0.18 0.03 93 1015.8
20240722112005 16 355 0.0 0.0 0.00 0.18 0.03 93 1015.8
20240722111504 16 355 0.0 0.0 0.00 0.18 0.03 93 1015.8
20240722110505 16 355 0.0 0.0 0.00 0.18 0.03 93 1015.8
20240722110005 16 355 0.0 0.0 0.00 0.18 0.03 93 1015.8
20240722105005 16 355 0.0 0.0 0.03 0.18 0.03 93 1015.8
20240722104506 16 355 0.0 0.0 0.03 0.18 0.03 93 1015.8
20240722104005 16 355 0.0 0.0 0.03 0.18 0.03 93 1015.7
20240722103505 16 355 0.0 0.0 0.03 0.18 0.03 93 1015.6
20240722102505 16 355 0.0 1.6 0.03 0.18 0.03 93 1015.7
20240722101007 16 355 1.6 3.2 0.03 0.18 0.03 92 1015.7
20240722100506 16 355 0.0 0.0 0.03 0.18 0.03 92 1015.7
20240722100007 16 355 0.0 0.0 0.03 0.18 0.03 93 1015.7
20240722095506 16 355 0.0 0.0 0.00 0.15 0.00 93 1015.7
20240722094007 16 355 0.0 0.0 0.00 0.15 0.00 93 1015.4
20240722093506 16 355 0.0 0.0 0.00 0.15 0.00 93 1015.3
20240722092507 16 355 0.0 0.0 0.00 0.15 0.00 92 1015.3
20240722091506 16 355 0.0 0.0 0.00 0.15 0.00 92 1015.3
20240722091007 16 355 0.0 1.6 0.00 0.15 0.00 92 1015.3
20240722090506 16 355 0.0 1.6 0.00 0.15 0.00 92 1015.3
20240722090006 16 355 0.0 1.6 0.00 0.15 0.00 92 1015.4
20240722085507 16 355 0.0 0.0 0.00 0.15 0.00 92 1015.5
20240722085007 16 355 0.0 0.0 0.00 0.15 0.00 92 1015.6
20240722084506 16 355 0.0 0.0 0.00 0.15 0.00 92 1015.6
20240722084006 16 355 0.0 0.0 0.00 0.15 0.00 92 1015.6
20240722083507 16 355 0.0 0.0 0.00 0.15 0.00 92 1015.7
20240722082506 16 355 0.0 0.0 0.00 0.15 0.00 92 1015.8
20240722082007 16 355 0.0 0.0 0.00 0.15 0.00 92 1015.8
20240722081506 16 355 0.0 0.0 0.00 0.15 0.00 92 1015.8
20240722081006 16 355 0.0 0.0 0.00 0.15 0.00 92 1015.9
20240722080506 17 355 0.0 0.0 0.00 0.15 0.00 92 1015.9
20240722080006 17 355 0.0 0.0 0.00 0.15 0.00 92 1015.9
20240722075506 17 355 0.0 0.0 0.00 0.15 0.00 92 1016.0
20240722075007 17 355 0.0 0.0 0.00 0.15 0.00 92 1016.0
20240722074506 17 355 0.0 0.0 0.00 0.15 0.00 92 1016.0
20240722074007 16 355 0.0 1.6 0.00 0.15 0.00 92 1016.1
20240722073507 17 355 0.0 0.0 0.00 0.15 0.00 92 1016.1
20240722073006 17 355 0.0 0.0 0.00 0.15 0.00 92 1016.2
20240722071506 17 355 0.0 0.0 0.00 0.15 0.00 92 1016.2
20240722071006 17 355 0.0 0.0 0.00 0.15 0.00 92 1016.2
20240722070506 17 355 0.0 0.0 0.00 0.15 0.00 92 1016.1
20240722070006 17 355 0.0 0.0 0.00 0.15 0.00 92 1016.1
20240722065506 17 355 0.0 0.0 0.00 0.15 0.00 92 1016.1
20240722065007 17 355 0.0 0.0 0.00 0.15 0.00 92 1016.2
20240722064506 17 355 0.0 0.0 0.00 0.15 0.00 92 1016.3
20240722064007 17 355 0.0 0.0 0.00 0.15 0.00 92 1016.3
20240722063507 17 355 0.0 1.6 0.00 0.15 0.00 92 1016.2
20240722063006 17 355 0.0 0.0 0.00 0.15 0.00 92 1016.2
20240722062506 18 355 0.0 0.0 0.00 0.15 0.00 92 1016.3
20240722062006 17 355 0.0 1.6 0.00 0.15 0.00 92 1016.3
20240722061506 17 355 0.0 0.0 0.00 0.15 0.00 92 1016.3
20240722061006 17 355 0.0 0.0 0.00 0.15 0.00 92 1016.3
20240722060506 17 355 0.0 0.0 0.00 0.15 0.00 92 1016.4
20240722060006 17 355 0.0 0.0 0.00 0.15 0.00 92 1016.4
20240722055506 17 355 0.0 0.0 0.00 0.15 0.00 92 1016.4
20240722055006 17 355 0.0 0.0 0.00 0.15 0.00 92 1016.4
20240722054007 17 355 0.0 0.0 0.00 0.15 0.00 92 1016.3
20240722053506 18 355 0.0 0.0 0.00 0.15 0.00 91 1016.4
20240722052506 18 355 0.0 0.0 0.00 0.15 0.00 91 1016.4
20240722052006 18 355 0.0 0.0 0.00 0.15 0.00 91 1016.4